Volver al catálogo

STARLINK-37864

ActivoComunicacionesSSO
NORAD 100107·PAYLOAD·🇺🇸 United States

Lanzado Jul 21, 2026 desde Vandenberg Space Force Base

Loading…

Próximos Pases (próximas 24 horas)

TLE

ActualizadoSource: Space-Track

Época: Sep 14, 2026, 01:21 UTC

1 A0107U 26166G   26257.05690865  .00064220  00000-0  42824-3 0  9997
2 A0107  97.2834 275.0065 0001269  82.4857 277.6552 15.75187799  8584

Sigue STARLINK-37864 en tiempo real con AllMySat

Download on the App Store